Tracking 22124 objects as of 23-Jan-2021
HD Live streaming from Space Station
objects crossing your sky now

SPACEBEE-15

Track SPACEBEE-15 now!
10-day predictions


NORAD ID: 46302
Int'l Code: 2020-061AG
Perigee: 537.8 km
Apogee: 540.6 km
Inclination: 97.5 °
Period: 95.3 minutes
Semi major axis: 6910 km
RCS: Unknown
Launch date: September 3, 2020
Source: United States (US)
Launch site: FRENCH GUIANA (FRGUI)
aabbcc
Your satellite tracking list
Your tracking list is empty




NASA's NSSDC Master Catalog

Two Line Element Set (TLE):
1 46302U 20061AG  21022.93334840  .00001916  00000-0  11738-3 0  9995
2 46302  97.5053  99.5077 0001977 121.7185 238.4238 15.11361810 21316
Source of the keplerian elements: AFSPC